Theta_e
318 318 318 318 318 318 317 317 318 318 319 319 319 320 320 320 320 319 319 319 319 319 319 319 320 320 321 320 320 320 319 319 318 319 320 319 319 319 320 320 320 320 321 321 322 322 323 324 324 325 326 326 326 326 326 326 326 326 326 325 325 325
317 317 317 317 317 317 317 317 316 316 318 319 319 319 318 319 319 319 319 319 318 319 319 319 319 320 321 320 320 320 320 319 318 319 319 319 319 319 320 320 320 320 321 320 321 322 322 323 324 324 325 326 326 326 326 326 326 326 326 326 326 325
317 317 316 317 317 317 316 317 316 316 316 318 319 317 316 317 317 317 318 318 318 318 318 319 319 320 320 319 318 319 319 320 319 319 319 319 319 319 319 320 320 320 320 321 321 321 322 323 323 323 324 325 326 326 325 326 326 326 326 326 326 326
318 317 317 317 318 317 316 316 316 316 316 317 317 317 317 317 317 317 318 318 318 319 318 319 319 319 319 318 318 319 320 320 320 319 319 319 319 319 319 319 320 320 320 321 321 321 321 321 322 323 324 325 325 325 325 325 326 326 326 326 326 326
317 317 317 317 318 318 317 316 316 316 316 316 316 316 317 317 317 317 317 317 318 318 319 319 319 318 318 317 318 318 318 317 316 316 316 316 316 316 317 317 317 318 319 319 320 319 320 320 321 322 323 324 325 325 325 325 325 326 326 326 326 326
317 317 318 318 318 318 318 318 317 317 317 316 316 316 316 316 317 317 316 316 317 317 317 317 317 316 316 316 315 315 315 315 315 314 314 314 313 313 313 313 314 314 314 316 316 316 317 319 319 320 322 323 324 324 324 325 325 325 326 326 326 327
318 318 318 318 318 318 319 318 318 318 318 317 317 316 316 316 315 315 316 316 315 316 316 315 314 314 314 315 315 316 316 316 316 317 316 316 315 314 313 312 311 311 311 312 313 313 314 315 316 317 318 319 321 322 323 324 324 325 325 326 326 327
318 318 318 318 318 318 318 318 317 317 317 318 317 317 317 317 316 315 314 314 314 314 314 314 313 313 313 315 315 316 316 317 317 317 317 318 317 316 315 314 312 311 310 310 310 310 311 311 312 313 314 315 317 319 321 323 324 324 325 326 326 327
318 318 318 318 318 317 317 317 316 315 315 316 317 316 316 317 318 316 315 314 314 314 314 313 313 312 312 313 314 314 316 316 316 316 317 318 318 318 317 316 314 312 311 310 310 310 310 309 310 311 312 313 314 316 319 321 323 324 325 325 326 326
318 318 318 318 318 317 316 316 314 314 315 316 316 316 316 316 317 318 317 316 315 314 314 314 314 313 312 312 312 313 314 315 315 314 315 316 318 318 318 317 316 314 312 311 310 310 310 309 309 309 310 311 312 313 317 320 322 323 324 325 325 325
319 318 317 317 318 317 316 315 314 315 316 316 316 317 316 316 316 317 318 318 318 317 316 315 314 314 313 312 312 312 312 313 314 314 314 315 317 318 318 317 317 316 314 312 311 310 310 310 310 309 309 309 310 312 314 317 321 323 324 324 324 324
319 318 318 317 317 317 315 315 314 315 317 317 316 317 317 316 316 317 318 318 319 318 318 317 316 316 315 314 314 312 312 312 312 313 314 315 317 318 318 318 317 316 315 313 311 310 310 310 310 310 309 309 309 310 312 315 318 321 322 323 323 323
318 317 318 318 317 316 315 314 315 316 317 317 317 317 317 317 316 316 317 317 317 318 318 318 318 317 316 316 316 316 315 315 315 315 316 317 317 318 318 318 318 317 316 314 312 311 310 310 310 310 310 309 308 309 311 314 316 318 320 321 321 322
317 317 318 318 316 315 315 314 315 316 317 316 316 316 316 316 316 316 316 316 316 317 317 317 317 317 317 317 317 317 316 317 317 317 317 317 317 317 318 318 318 318 317 315 313 311 310 310 310 310 310 309 308 308 309 312 315 317 319 320 321 321
317 317 318 317 315 314 314 315 316 316 316 316 315 315 315 316 316 316 316 316 316 316 316 316 316 316 316 316 316 316 316 316 317 317 317 317 317 317 317 318 317 317 317 315 313 311 310 310 309 309 310 310 309 308 308 309 313 316 318 319 320 321
317 317 317 315 313 312 312 313 314 314 315 315 314 314 314 313 313 314 314 315 315 315 315 315 315 315 315 315 315 315 315 315 315 316 316 317 317 317 317 317 317 317 316 315 313 311 310 310 309 309 310 309 309 308 308 308 310 313 316 318 319 320
317 316 315 313 311 310 310 310 310 311 312 312 312 311 311 311 310 310 311 311 312 313 313 314 314 314 314 314 313 313 314 314 314 314 315 315 316 316 316 316 316 316 316 315 313 311 310 310 310 309 309 309 309 309 308 308 309 311 313 315 318 319
315 313 311 309 308 308 307 307 307 307 308 308 309 309 309 309 309 309 310 310 310 311 311 311 312 312 312 313 313 313 313 313 313 313 314 314 314 315 315 316 316 316 316 315 313 312 310 310 310 309 309 309 309 309 309 309 308 309 310 312 314 315
309 308 306 305 306 306 306 305 305 304 304 305 305 306 307 308 308 309 309 310 310 310 310 310 311 311 311 312 312 312 313 313 313 313 313 314 314 314 314 315 315 315 316 316 315 313 311 310 310 310 310 310 310 309 309 309 309 309 309 308 310 311
305 304 304 303 303 304 304 304 304 303 302 302 302 303 304 305 307 308 308 308 309 309 309 309 309 310 310 311 311 311 312 312 313 313 313 313 313 314 314 314 314 314 315 315 315 314 313 311 310 310 310 311 310 310 310 309 309 309 309 309 309 309
303 303 303 302 302 302 303 303 303 303 302 301 300 301 302 303 304 305 306 307 307 307 307 308 308 308 309 310 310 311 311 312 312 312 313 313 313 313 313 313 314 314 314 314 315 315 315 313 312 311 310 311 311 310 310 310 309 309 309 309 309 308
303 302 302 302 302 302 302 302 302 302 301 300 300 300 301 301 302 303 303 304 305 305 306 306 306 307 307 308 308 309 310 310 311 312 312 313 313 313 313 313 312 313 313 313 313 314 315 315 314 313 312 311 311 311 311 310 310 311 310 309 309 309
301 301 301 301 300 300 300 300 301 301 301 299 299 299 300 301 301 301 302 302 302 303 303 303 304 304 305 305 306 307 308 309 310 311 312 312 313 313 313 313 312 312 312 312 312 313 313 314 314 314 314 313 312 311 311 311 311 311 311 310 310 309
299 299 299 298 298 298 298 299 299 299 299 299 298 298 299 299 300 300 301 301 301 301 302 302 302 302 302 303 303 304 305 306 308 309 311 312 312 312 313 313 312 312 311 311 311 312 312 313 313 313 313 314 314 313 312 312 311 311 311 311 310 310
298 298 298 298 298 298 298 298 298 298 298 298 298 298 298 298 299 299 300 300 301 301 302 302 302 302 302 302 302 302 302 303 305 307 309 310 311 312 312 312 312 312 312 312 311 311 312 312 313 313 313 312 313 314 313 313 312 311 310 311 311 311
297 297 297 297 297 297 297 297 297 298 298 298 298 298 298 298 298 299 299 300 300 301 301 302 302 302 303 302 303 303 302 302 303 304 306 308 310 311 312 312 312 312 312 312 312 311 311 312 312 313 313 312 312 313 314 314 313 312 311 310 311 311
297 298 298 298 298 298 298 297 297 297 297 298 298 298 298 298 298 299 299 299 300 300 301 301 301 302 302 303 303 303 303 303 303 303 304 306 308 309 310 311 311 312 312 312 312 311 311 311 312 313 313 313 312 312 313 313 313 313 311 310 310 311
296 296 297 298 299 299 298 298 298 297 297 298 298 298 298 298 298 299 299 299 299 300 300 300 301 301 302 302 303 303 303 303 303 302 302 304 306 308 309 310 311 311 311 312 312 312 311 311 312 312 313 312 312 312 312 313 313 312 310 309 309 309
295 295 296 296 297 297 297 297 297 297 297 298 298 298 298 298 298 299 299 299 299 299 299 300 300 301 301 301 302 302 303 303 303 303 302 303 305 307 308 309 310 310 310 311 311 311 311 311 312 312 313 312 311 311 312 312 312 311 310 309 309 309
295 295 295 295 295 295 296 295 295 296 296 297 298 298 298 298 299 299 299 299 299 299 299 300 300 300 300 301 301 302 302 303 304 304 303 303 304 306 307 308 309 309 309 310 310 311 311 311 311 312 312 312 310 310 310 311 311 310 309 309 309 308
295 295 295 296 295 295 295 295 294 295 296 296 297 297 297 298 298 298 298 299 299 299 300 300 300 300 300 301 301 301 302 303 303 304 304 304 304 305 307 308 309 309 309 309 309 309 310 311 311 310 311 311 310 308 309 309 309 309 308 307 307 307
295 295 296 296 295 295 295 295 294 295 295 295 296 296 296 296 297 297 298 298 298 299 299 300 300 300 300 301 301 301 301 302 303 303 304 304 304 305 306 307 308 309 308 308 309 309 309 310 310 309 309 311 310 309 308 308 307 308 308 307 306 306
294 294 295 295 294 294 294 294 294 294 294 294 294 294 294 295 295 296 296 297 297 298 299 299 300 300 300 301 301 301 302 302 302 303 303 304 304 304 305 306 307 308 308 309 309 309 309 309 309 308 308 310 310 310 309 307 306 305 306 306 305 305
293 293 293 293 293 293 293 293 293 293 293 293 293 293 293 293 293 294 295 295 296 297 298 299 299 300 300 301 301 301 302 302 302 302 302 303 304 304 304 304 305 307 308 308 309 309 309 309 308 308 307 308 309 309 309 308 305 303 303 304 304 304
293 293 293 293 293 293 292 292 293 293 293 293 293 293 293 293 293 293 293 294 294 295 297 298 298 299 300 300 301 301 302 302 303 303 303 303 303 304 304 304 304 306 307 308 308 309 309 309 308 307 306 307 307 308 308 308 306 304 301 301 303 303
292 293 293 293 293 293 293 293 293 293 293 293 293 293 293 293 294 294 294 293 293 294 295 296 297 298 299 300 301 301 302 302 303 303 304 304 304 304 304 304 304 305 306 307 308 308 309 309 308 307 306 306 306 306 306 306 307 306 302 299 301 303
292 292 292 292 292 293 293 293 293 293 293 293 293 293 293 293 294 294 294 294 294 293 294 295 296 297 298 299 300 301 301 302 302 303 303 304 304 304 305 304 304 304 305 306 307 308 308 308 308 308 306 305 305 305 304 304 306 307 304 300 299 300
291 291 291 292 292 292 292 293 293 292 293 293 293 293 293 293 293 293 294 294 294 294 293 294 295 296 297 298 299 300 301 301 302 302 303 303 304 304 305 305 305 305 305 306 307 307 308 308 308 308 306 305 304 303 302 303 305 306 306 303 300 299
Wind_Speed
13 12 12 12 10 10 10 11 12 13 13 14 15 16 18 20 21 21 21 21 23 24 25 24 23 24 25 24 24 24 26 27 28 29 29 29 30 31 32 33 33 33 32 33 33 33 33 33 33 33 34 36 36 34 34 34 34 35 36 37 38 39
12 12 13 12 12 12 12 12 12 12 13 14 14 13 14 16 18 20 23 25 28 30 31 29 27 26 25 24 23 24 25 26 26 27 27 27 29 29 30 31 32 32 32 32 32 32 33 33 33 33 34 36 37 36 36 36 35 36 37 38 39 39
13 13 13 12 12 13 13 12 12 12 12 12 13 12 11 13 15 17 20 22 26 29 31 31 29 26 24 23 23 23 23 23 24 25 25 26 27 28 30 30 30 31 31 32 32 32 32 32 33 34 34 35 38 37 37 37 37 38 39 39 40 40
13 13 12 12 14 17 17 15 12 12 11 11 11 12 13 14 15 16 16 17 18 19 21 24 24 23 23 22 21 20 19 19 20 22 23 24 24 26 28 29 29 30 31 31 32 32 32 32 33 34 34 36 38 38 38 39 39 39 39 40 41 41
14 12 11 11 13 17 20 20 17 14 13 11 10 11 13 14 14 14 14 13 13 13 15 17 19 20 19 18 16 15 15 15 17 18 19 20 22 24 26 26 27 29 30 31 32 32 32 33 34 34 35 37 38 39 40 40 40 40 41 41 42 42
17 13 11 13 14 15 18 20 19 17 16 15 13 11 11 11 11 11 12 12 12 12 13 14 15 14 12 10 8 7 8 10 11 13 15 17 19 21 24 25 26 27 29 30 32 32 32 34 35 35 36 37 38 40 41 41 42 42 42 42 43 43
20 17 14 14 17 18 20 21 20 19 18 17 15 13 11 10 9 9 10 10 10 10 10 11 11 9 6 4 3 4 5 8 10 12 14 16 17 19 21 23 25 26 28 29 30 32 32 33 34 36 36 37 38 40 41 42 42 43 43 43 43 43
21 21 19 19 21 22 22 22 21 21 20 19 18 15 13 11 10 9 9 9 8 8 8 9 9 8 7 6 5 5 6 9 11 14 17 18 20 20 21 22 24 25 27 28 29 31 32 33 34 36 37 38 38 40 41 41 42 43 43 43 43 43
21 21 22 24 24 22 20 21 22 22 22 20 19 18 16 14 12 11 9 9 8 9 9 9 9 9 10 10 9 8 9 11 14 17 20 21 23 23 24 24 25 26 27 28 29 30 31 33 34 36 37 38 38 39 40 41 42 43 43 43 43 42
20 20 23 25 24 22 22 23 23 23 21 19 19 19 19 17 15 14 12 11 10 10 10 11 12 12 13 14 13 13 15 17 19 22 24 25 26 26 27 27 28 28 28 28 29 30 31 33 35 37 38 38 39 40 41 41 42 42 43 43 43 42
18 21 24 24 24 26 27 25 24 21 18 16 18 19 19 18 18 17 17 15 14 14 14 14 15 16 17 18 17 18 20 23 25 27 29 30 30 30 30 30 31 31 30 30 29 30 31 33 35 36 37 39 39 40 41 41 42 43 43 43 43 43
21 25 25 23 24 28 28 26 24 20 16 15 17 18 18 18 19 19 19 18 17 17 17 18 19 20 21 21 22 22 24 26 28 30 32 33 34 33 32 32 33 33 33 32 31 30 31 33 35 36 37 38 39 40 40 41 42 42 42 42 42 42
25 25 22 20 24 27 28 27 24 20 17 16 16 18 18 18 19 19 18 18 17 17 18 19 21 22 23 23 24 25 26 28 30 32 34 35 35 34 34 35 36 35 35 34 34 33 32 33 34 35 36 37 38 38 39 40 41 41 41 41 41 42
23 22 20 21 24 26 26 25 22 20 18 16 16 17 17 18 19 19 19 18 18 18 19 20 22 23 23 24 25 26 28 29 31 34 35 36 35 35 36 37 38 38 37 37 36 35 33 32 32 33 35 36 36 37 38 39 40 40 41 41 41 41
21 20 21 23 24 22 20 18 18 18 17 16 16 16 16 17 18 18 19 19 19 19 20 21 22 23 24 24 25 27 28 29 31 32 34 35 36 36 38 39 39 39 39 38 38 36 33 31 31 31 32 33 34 35 36 37 38 39 41 41 42 42
19 20 21 22 20 15 12 11 12 13 14 15 16 16 16 17 16 16 17 18 19 20 21 22 22 23 23 23 25 26 27 27 28 29 31 33 35 37 39 39 40 40 39 38 38 36 34 32 30 29 29 31 32 32 33 35 37 38 40 41 42 43
18 19 18 16 13 10 8 7 7 8 10 12 13 14 15 15 14 14 14 14 15 17 19 20 20 21 21 21 22 23 23 23 24 26 28 31 34 36 38 39 40 40 39 38 38 37 36 33 29 28 28 29 29 30 31 33 34 37 39 40 41 43
15 14 11 8 7 7 6 5 5 6 6 7 8 10 12 12 13 13 13 13 12 13 14 16 17 18 19 20 21 22 22 23 23 24 25 28 31 34 36 38 39 39 39 38 38 38 38 34 29 27 28 28 28 29 30 31 33 35 37 39 41 42
8 6 5 3 2 4 5 5 6 5 5 6 6 7 8 10 11 12 13 13 13 13 14 15 17 18 19 20 22 23 24 25 25 26 26 28 30 32 34 36 38 38 39 39 38 38 38 36 32 29 28 28 28 29 30 31 33 34 36 38 39 40
6 4 3 1 1 4 6 7 7 7 8 8 8 8 9 10 11 12 13 13 14 14 15 16 18 19 19 21 22 23 24 25 26 27 27 29 30 31 32 35 37 39 39 39 39 38 39 38 35 32 31 30 30 30 31 32 34 35 36 36 36 38
5 4 3 3 4 6 8 10 10 10 11 11 10 10 10 11 11 12 13 14 14 15 15 16 18 19 20 21 22 23 24 24 25 26 28 29 30 31 32 34 37 39 40 40 40 39 40 40 38 35 34 34 33 32 32 34 36 37 37 36 35 36
6 6 6 7 8 9 11 13 13 13 13 13 12 11 11 12 13 13 14 15 15 16 17 17 19 20 21 22 23 24 24 25 25 26 27 29 30 31 32 33 35 37 39 41 43 43 42 43 41 38 37 37 37 36 34 36 38 39 37 36 36 37
7 7 8 9 10 11 12 14 16 15 16 16 15 14 14 15 16 16 17 17 17 18 18 19 20 21 22 23 24 25 26 25 26 27 27 28 29 30 31 32 32 34 36 38 41 44 45 46 45 42 40 40 39 38 37 38 39 39 37 37 37 38
7 8 9 9 10 11 11 14 16 16 17 18 18 18 19 20 20 20 20 20 20 20 20 20 21 22 23 24 25 27 27 26 27 28 28 29 29 29 30 30 31 32 33 34 36 39 42 45 47 47 44 42 41 40 40 40 39 38 37 38 40 39
9 10 11 10 11 11 12 13 15 16 18 19 20 20 22 23 24 24 24 23 23 22 22 22 23 23 24 25 26 28 29 29 28 29 29 30 31 31 31 31 31 31 32 32 33 35 36 39 43 46 46 43 42 41 41 41 39 37 37 39 41 41
13 14 13 13 13 13 13 14 16 17 19 20 21 23 24 25 26 26 27 27 26 25 24 23 23 24 24 25 26 28 29 30 30 31 31 31 32 33 33 33 33 33 33 32 32 33 33 35 38 41 44 44 42 41 41 40 40 39 38 40 41 41
16 18 18 18 18 18 17 17 18 20 21 21 23 24 25 26 27 28 28 29 29 29 28 27 26 25 25 25 26 28 29 30 31 32 32 32 33 34 35 35 35 35 35 35 34 33 33 34 36 38 41 42 42 42 40 38 39 40 40 41 42 41
18 19 21 21 21 22 22 22 22 23 23 23 24 25 26 27 28 29 31 31 32 32 32 32 31 30 28 27 27 28 29 29 31 32 33 34 34 34 35 36 36 37 37 38 38 37 36 35 35 37 39 40 41 42 40 36 37 38 39 41 42 41
20 21 21 21 21 21 23 23 24 24 24 24 24 25 26 28 29 31 33 33 34 34 34 35 35 34 33 31 30 30 30 30 31 32 33 34 35 35 36 36 37 37 38 39 40 40 40 39 37 37 38 39 39 40 39 36 34 34 36 39 42 41
23 23 24 24 22 22 23 24 24 25 25 24 24 25 27 29 31 33 35 35 35 36 36 36 37 37 37 36 34 33 33 32 33 33 34 34 35 35 36 37 38 39 39 39 40 41 42 42 41 40 40 39 38 37 37 36 34 32 33 35 38 40
26 26 27 27 25 24 25 25 25 25 25 25 25 26 27 28 30 32 34 35 36 37 37 37 38 39 40 40 39 38 36 36 35 35 36 35 34 34 35 37 39 40 39 39 40 41 42 43 43 42 42 42 39 36 35 35 33 32 31 31 32 35
27 28 30 29 28 28 28 27 26 26 25 26 26 27 28 29 30 32 33 34 36 37 37 38 38 39 40 41 41 41 40 40 38 38 39 38 35 33 34 36 38 39 38 38 40 40 41 42 42 42 42 43 43 39 35 33 32 31 30 29 28 30
28 29 31 31 31 31 31 30 28 27 27 27 28 28 30 31 32 34 36 36 37 37 38 39 40 40 41 41 41 41 42 42 42 41 41 41 40 38 36 36 37 37 37 38 40 40 40 41 40 40 40 41 43 42 38 35 33 31 29 28 27 30
30 31 32 33 33 33 33 33 31 30 30 30 30 31 32 33 34 36 38 39 39 39 39 39 40 41 42 42 42 42 42 44 44 43 42 42 42 42 42 40 40 39 38 38 39 39 40 40 38 38 37 38 39 41 40 37 34 32 30 27 27 31
30 31 32 33 33 34 35 35 34 32 33 33 33 34 36 36 37 38 40 41 41 41 41 41 41 42 43 43 43 44 44 44 45 46 46 44 43 44 44 44 44 42 40 40 39 39 40 39 38 37 36 35 36 38 39 38 36 33 31 29 31 34
30 31 32 33 34 35 36 37 36 35 35 36 36 37 39 40 40 41 42 42 42 42 43 43 43 43 44 44 44 45 45 45 45 46 47 48 47 46 46 46 46 45 44 42 41 41 40 40 39 38 36 34 34 34 35 36 37 35 32 31 34 37
30 32 33 35 36 38 39 40 39 37 38 38 38 40 42 43 44 45 44 44 43 43 44 44 44 44 45 46 46 46 46 47 47 47 47 48 49 49 49 49 49 48 47 45 43 42 42 41 40 40 38 35 32 31 30 32 36 38 35 34 37 41
35 36 36 37 39 41 43 44 41 38 39 40 40 43 46 47 47 47 46 46 45 44 45 46 46 46 46 46 47 47 48 49 48 48 49 49 50 51 52 52 52 51 50 48 46 43 42 41 41 41 39 35 31 27 27 30 36 39 38 37 40 43
Wind_Direction
346 339 327 323 320 319 313 305 301 292 280 274 269 263 259 258 257 255 252 248 246 246 250 258 267 273 273 272 274 274 272 268 264 264 265 266 266 265 264 265 266 266 266 265 264 264 264 263 263 262 262 262 261 259 258 257 256 254 252 252 253 252
2 343 333 334 334 332 326 317 312 303 285 271 267 265 261 260 260 259 257 256 255 254 255 257 262 267 267 270 275 276 274 270 266 265 266 267 267 266 266 265 265 265 265 264 263 263 264 264 263 263 261 260 260 259 257 257 257 256 255 254 254 254
8 357 358 4 360 355 346 332 322 313 299 277 262 258 260 263 265 264 264 264 263 260 257 255 257 261 265 271 275 275 275 274 271 269 269 269 270 270 271 271 270 270 269 268 267 266 265 264 263 263 261 260 259 259 258 258 258 257 256 256 255 254
3 360 4 16 18 16 10 359 344 330 318 298 272 261 267 274 273 271 272 275 275 268 258 252 254 260 267 272 272 270 272 274 274 275 275 275 275 275 276 276 275 274 273 272 271 268 266 264 263 262 261 259 258 257 257 258 257 256 256 255 254 253
347 347 345 354 8 16 17 14 11 7 358 342 316 291 284 284 280 275 273 276 277 271 260 256 257 263 268 270 271 274 279 283 285 287 288 288 286 283 281 280 278 276 275 273 272 268 265 264 262 261 260 259 258 256 257 257 256 256 256 254 254 254
332 332 331 335 345 356 3 4 5 9 10 6 358 342 322 309 293 279 271 269 267 262 260 259 259 263 265 270 280 290 300 307 308 308 306 301 296 291 288 285 282 280 278 276 275 273 269 266 264 262 260 259 259 258 258 258 257 257 256 255 255 255
319 319 325 331 331 333 339 343 344 344 346 349 351 351 346 335 317 295 279 271 265 258 257 257 257 255 247 250 281 308 322 329 327 323 320 314 307 301 294 289 284 282 280 278 277 277 275 272 270 268 264 261 261 260 259 258 258 258 258 257 256 256
308 312 323 329 329 329 330 332 332 330 327 325 327 330 334 336 329 317 300 288 281 272 265 263 260 248 231 233 256 283 306 319 323 323 320 316 311 306 300 294 287 283 282 280 279 277 276 274 272 270 268 265 263 261 260 258 259 259 259 259 259 258
301 310 323 330 333 332 327 324 323 323 320 318 318 318 317 319 320 320 313 303 295 290 281 274 267 254 243 244 252 270 289 300 308 312 312 310 307 304 300 296 291 286 283 282 281 279 276 274 271 269 268 267 265 263 261 259 258 258 259 260 260 259
298 310 322 328 331 328 323 321 320 321 321 319 316 313 310 307 306 306 305 301 297 293 288 282 276 268 262 257 257 263 274 282 290 295 298 299 299 298 295 292 289 286 283 282 282 282 280 276 272 270 267 266 265 264 262 259 258 258 259 259 260 258
299 311 320 326 325 321 319 320 320 320 319 314 308 304 302 300 296 292 291 291 290 289 287 283 279 274 270 267 263 263 266 272 278 282 286 289 291 292 290 287 285 283 281 281 282 283 282 280 277 274 271 267 265 263 262 260 258 258 258 258 258 257
296 306 317 321 315 314 316 317 318 316 310 303 298 295 293 290 287 283 281 281 282 283 282 280 277 273 270 267 263 260 261 264 269 273 277 280 284 287 287 284 282 281 281 280 280 281 282 281 281 279 276 272 268 265 264 262 261 259 258 258 258 257
294 304 313 309 304 309 312 312 312 310 303 295 290 288 286 285 284 283 283 283 282 281 280 278 276 273 272 270 267 265 264 265 268 271 275 279 283 285 285 282 280 280 279 278 278 278 279 281 283 282 280 276 272 268 266 264 263 262 260 260 259 259
298 305 302 296 302 309 308 305 304 304 303 298 292 288 285 285 285 285 287 288 286 283 281 278 275 275 275 275 275 274 274 274 275 277 280 282 284 284 282 280 279 278 277 275 274 275 276 280 283 283 282 280 276 272 268 265 264 263 262 261 261 261
295 292 288 294 307 311 308 304 301 302 304 306 304 299 294 291 288 285 284 285 285 284 282 280 278 278 278 279 279 279 278 278 278 279 281 282 281 280 279 278 277 276 275 273 272 272 273 277 280 282 283 281 278 274 270 266 264 262 261 261 261 262
275 274 282 295 304 307 307 306 304 304 305 307 308 307 304 301 297 293 288 286 285 285 284 284 283 283 283 282 282 282 281 281 280 278 278 278 278 278 278 279 279 278 278 276 274 272 272 274 277 281 282 281 279 276 271 267 265 262 261 260 260 261
260 270 280 288 291 295 304 309 310 309 303 302 305 305 306 307 306 304 300 293 287 283 281 282 282 283 285 284 284 286 287 287 286 283 281 280 279 279 280 281 282 283 282 280 277 274 272 272 276 279 280 280 279 277 273 269 265 262 261 259 259 259
265 270 267 266 271 283 301 312 313 310 302 299 300 299 301 304 305 305 304 303 299 293 289 288 288 288 289 288 287 288 289 290 289 289 289 287 286 285 285 284 284 285 285 284 281 277 273 272 273 275 276 278 279 278 275 272 268 265 263 261 259 258
247 235 221 219 262 283 298 309 310 311 305 297 292 288 286 285 287 289 291 294 297 297 298 297 296 295 294 293 292 291 291 290 289 288 288 288 288 289 290 290 288 286 285 284 283 282 278 275 272 272 273 275 276 276 275 272 270 268 266 265 263 261
196 198 202 195 281 288 286 291 297 302 305 303 297 288 279 275 274 275 277 281 285 289 295 297 298 298 297 296 297 297 297 296 294 292 289 287 286 286 287 289 290 289 287 284 283 284 282 279 275 272 272 272 274 276 276 274 272 270 269 269 268 266
202 220 243 252 267 275 277 281 284 290 300 307 307 300 290 282 278 276 276 277 278 282 287 291 293 295 296 296 297 297 299 299 299 298 295 291 289 288 287 287 288 289 289 287 284 282 281 280 278 275 273 272 274 275 276 275 274 272 271 271 270 269
232 247 257 265 269 273 278 281 281 285 294 302 306 306 300 293 289 286 283 282 280 281 283 285 287 288 290 293 295 295 296 298 298 298 297 295 294 293 293 293 292 292 292 291 289 286 283 281 279 276 273 272 272 273 274 274 274 274 275 274 271 270
259 261 265 273 278 281 284 284 284 286 290 296 302 304 302 300 298 296 293 291 289 288 287 286 287 287 288 291 293 293 293 296 297 297 297 296 295 294 294 296 297 298 297 296 294 291 288 285 282 279 275 272 272 272 271 271 272 275 277 276 273 270
278 277 278 281 283 288 291 290 291 292 292 295 302 304 303 303 304 303 301 299 299 298 296 294 294 294 295 296 297 295 292 294 296 297 296 296 295 294 294 294 295 297 299 300 299 297 293 290 287 284 281 277 275 273 270 269 270 273 275 275 274 272
296 292 292 293 291 295 298 296 297 299 297 299 303 303 303 304 306 306 305 304 304 303 301 301 300 300 302 302 302 298 295 295 296 296 296 296 296 295 293 292 292 293 294 298 301 303 301 297 293 289 286 283 278 275 273 271 270 269 270 272 274 274
301 297 297 300 300 302 305 304 302 302 301 304 306 305 305 306 307 307 306 306 305 303 301 301 301 303 306 306 306 303 300 299 298 297 297 298 298 296 295 295 294 293 292 293 295 300 303 303 300 296 291 287 283 278 276 275 273 270 266 266 270 272
299 294 293 295 298 301 304 306 305 304 304 307 308 307 308 309 308 307 307 306 305 304 303 302 300 302 306 307 308 307 305 303 302 300 300 300 299 299 299 299 299 297 295 293 293 295 298 300 300 299 296 292 287 282 279 277 275 271 265 262 263 266
300 295 292 291 293 296 298 300 301 302 303 305 305 306 308 308 307 307 307 306 306 306 305 304 302 303 304 307 309 309 308 308 306 303 301 301 301 302 301 301 301 300 298 297 296 297 296 296 296 297 296 294 289 285 283 281 277 272 266 262 261 261
302 300 298 296 296 298 298 298 299 301 302 304 305 305 305 305 306 305 304 304 305 305 305 304 303 303 303 305 307 308 308 309 308 305 303 302 302 303 303 303 303 301 300 300 300 299 298 295 294 293 294 293 291 288 287 285 281 277 272 266 262 259
303 304 303 301 302 304 303 302 303 303 305 307 307 305 303 301 302 301 301 302 303 303 303 304 304 304 304 305 306 307 308 308 308 305 303 302 302 303 303 304 303 301 302 303 302 301 300 298 296 294 293 294 293 290 288 286 284 280 276 270 266 263
302 303 300 299 301 302 299 300 302 303 305 307 307 306 303 300 298 296 296 298 300 301 302 303 303 304 305 305 305 306 307 307 307 305 302 302 302 302 302 301 299 300 303 304 302 302 302 302 301 299 295 293 292 289 287 287 286 283 278 274 270 267
299 299 296 296 297 296 294 295 297 299 301 305 307 307 306 304 302 297 296 297 298 299 301 301 301 302 303 303 304 305 305 304 304 304 303 303 304 303 301 299 297 298 302 303 302 302 303 303 304 303 298 294 292 289 286 285 285 283 280 276 271 266
297 296 294 294 295 293 291 291 294 295 297 301 305 305 305 305 304 300 299 300 300 299 299 300 299 299 300 300 301 303 303 302 302 302 302 304 306 305 302 300 298 299 300 301 302 302 303 304 306 304 300 296 292 289 286 284 284 283 279 274 271 266
295 294 293 293 294 294 292 291 293 294 294 297 301 302 301 302 303 300 299 299 300 300 299 299 299 299 299 299 300 300 301 301 301 300 301 302 304 305 304 304 302 301 300 301 302 302 303 304 306 304 301 296 292 289 286 282 281 282 280 273 267 264
295 293 292 292 293 293 292 292 293 294 295 296 298 299 298 300 302 301 299 298 300 300 299 299 299 299 298 298 298 299 299 300 300 300 300 300 301 302 302 302 302 302 302 302 302 302 302 304 305 304 301 295 290 287 285 281 278 277 277 271 262 258
297 296 295 295 294 293 291 291 293 296 298 298 298 298 298 299 301 301 299 298 299 299 298 298 299 299 298 297 297 297 297 297 297 298 299 299 299 300 299 299 300 300 301 302 302 301 301 302 303 303 301 296 290 284 283 282 278 273 270 267 261 256
296 296 296 296 296 295 292 291 294 297 298 298 298 299 298 299 300 300 298 298 299 299 298 297 298 297 297 296 296 296 296 295 295 296 296 297 297 298 298 297 298 298 299 299 299 299 299 301 302 302 301 298 291 284 280 279 276 271 266 263 260 257
292 293 293 294 295 295 293 292 294 297 297 296 297 298 297 298 299 299 298 297 298 298 297 296 295 294 294 294 294 294 294 293 293 293 294 294 295 295 295 295 296 296 296 296 295 295 296 298 299 299 300 299 293 283 276 273 272 270 266 262 260 259